Weather History for Lewistown, MT

Change the Weather History Date:

Saturday, July 5, 2014

  Actual Average Record
Temperature  
Mean Temperature 70 °F 63 °F  
Max Temperature 85 °F 78 °F 99 °F (1936)
Min Temperature 54 °F 49 °F 35 °F (1903)
Degree Days  
Heating Degree Days 0 4  
Month to date heating degree days 4 20  
Since 1 June heating degree days 290 247  
Since 1 July heating degree days 4 20  
Cooling Degree Days 5 2  
Month to date cooling degree days 20 10  
Year to date cooling degree days 21 32  
Since 1 June cooling degree days 21 30  
Growing Degree Days 19 (Base 50)    
Moisture  
Dew Point 47 °F    
Average Humidity 51    
Maximum Humidity 83    
Minimum Humidity 18    
Precipitation  
Precipitation 0.00 in 0.07 in 1.50 in (1903)
Month to date precipitation 0.12 0.37  
Year to date precipitation 8.22 9.71  
Snow  
Snow 0.00 in - - ()
Snow Depth 0.00 in    
Sea Level Pressure  
Sea Level Pressure 29.93 in    
Wind  
Wind Speed 7 mph (WSW)    
Max Wind Speed 20 mph    
Max Gust Speed 26 mph    
Visibility 10 miles    
Events      
T = Trace of Precipitation, MM = Missing Value Source: NWS Daily Summary

Daily Weather History Graph

Daily Weather History Graph

Search for Another Location

Airport:

Trip Planner

Search our weather history database for the weather conditions in past years. The results will help you decide how hot, cold, wet, or windy it might be!

Date:

Astronomy

Jul. 05, 2014 Rise Set
Actual Time 5:29 AM MDT 9:15 PM MDT
Civil Twilight 4:50 AM MDT 9:54 PM MDT
Nautical Twilight 3:56 AM MDT 10:47 PM MDT
Astronomical Twilight 2:40 AM MDT 12:03 AM MDT
Moon 1:59 PM MDT (7/5) 12:38 AM MDT (7/5)
Length of Visible Light 17h 04m
Length of Day
15h 46m
First Quarter, 53% of the Moon is Illuminated
Jul 5
First Quarter
Jul 12
Full
Jul 18
Last Quarter
Jul 26
New
Aug 3
First Quarter

Hourly Weather History & Observations

Time (MDT) Temp. Dew Point Humidity Pressure Visibility Wind Dir Wind Speed Gust Speed Precip Events Conditions
12:54 AM 62.1 °F 52.0 °F 70% 29.86 in 10.0 mi SE 6.9 mph - N/A   Clear
1:54 AM 61.0 °F 50.0 °F 67% 29.86 in 10.0 mi SE 4.6 mph - N/A   Clear
2:54 AM 59.0 °F 51.1 °F 75% 29.86 in 10.0 mi Calm Calm - N/A   Scattered Clouds
3:54 AM 55.0 °F 50.0 °F 83% 29.87 in 10.0 mi ESE 4.6 mph - N/A   Partly Cloudy
4:54 AM 55.9 °F 50.0 °F 80% 29.87 in 10.0 mi SSE 4.6 mph - N/A   Clear
5:54 AM 54.0 °F 48.9 °F 83% 29.89 in 10.0 mi ESE 6.9 mph - N/A   Clear
6:54 AM 62.1 °F 52.0 °F 70% 29.91 in 10.0 mi ESE 5.8 mph - N/A   Clear
7:54 AM 66.0 °F 53.1 °F 63% 29.93 in 10.0 mi WNW 6.9 mph - N/A   Clear
8:54 AM 73.0 °F 55.9 °F 55% 29.93 in 10.0 mi SW 3.5 mph - N/A   Clear
9:54 AM 80.1 °F 51.1 °F 36% 29.91 in 10.0 mi West 8.1 mph - N/A   Clear
10:54 AM 82.0 °F 48.9 °F 31% 29.91 in 10.0 mi West 10.4 mph - N/A   Clear
11:54 AM 80.1 °F 46.9 °F 31% 29.94 in 10.0 mi NW 6.9 mph - N/A   Clear
12:54 PM 82.9 °F 39.9 °F 22% 29.94 in 10.0 mi WNW 13.8 mph 25.3 mph N/A   Clear
2:54 PM 84.0 °F 37.9 °F 19% 29.95 in 10.0 mi WNW 15.0 mph 24.2 mph N/A   Clear
3:54 PM 84.0 °F 39.0 °F 20% 29.96 in 10.0 mi NW 12.7 mph 25.3 mph N/A   Clear
4:54 PM 82.0 °F 41.0 °F 23% 29.96 in 10.0 mi NNW 10.4 mph 17.3 mph N/A   Clear
5:54 PM 82.9 °F 41.0 °F 23% 29.97 in 10.0 mi North 6.9 mph - N/A   Clear
6:54 PM 82.0 °F 39.9 °F 22% 29.96 in 10.0 mi SW 4.6 mph - N/A   Clear
7:54 PM 78.1 °F 48.9 °F 36% 29.96 in 10.0 mi SW 4.6 mph - N/A   Clear
8:54 PM 75.0 °F 46.0 °F 36% 29.97 in 10.0 mi North 3.5 mph - N/A   Clear
9:54 PM 70.0 °F 48.9 °F 47% 29.99 in 10.0 mi Calm Calm - N/A   Clear
10:54 PM 64.0 °F 48.9 °F 58% 30.00 in 10.0 mi South 6.9 mph - N/A   Clear
11:54 PM 60.1 °F 46.9 °F 62% 30.02 in 10.0 mi ESE 4.6 mph - N/A   Clear